Flag for Brazil Weather past 2 weeks in Porto Alegre, Rio Grande do Sul, Brazil

Now
63 °F

Sunny.


Feels Like: 63 °F
Forecast: 58 / 85 °F
Wind: 13 mph from East

Location: Porto Alegre Aero-Porto

Current Time: Aug 23, 2014 at 9:38:20 AM

Latest Report: Aug 23, 2014 at 9:00 AM


Visibility: 10 mi

Pressure: 29.95 "Hg

Humidity: 88%

Dew point: 59 °F

Location of Porto AlegreLocation

Historic Weather in Porto Alegre — Graph

°F

Porto Alegre temperature yesterday

Maximum temperature yesterday: 84 °F (at 2:00 PM)
Minimum temperature yesterday: 54 °F (at 4:00 AM)
Average temperature yesterday: 67 °F

Past Weeks' High & Low Weather Summary

 TemperatureHumidityPressure
High84 °F (Aug 22, 2:00 PM)100% (Aug 9, 4:00 AM)30.45 "Hg (Aug 9, 4:00 AM)
Low37 °F (Aug 14, 5:00 AM)28% (Aug 10, 1:00 PM)29.89 "Hg (Aug 10, 6:00 PM)
Average60 °F80%30.17 "Hg
* Reported Aug 8 8:00 AM — Aug 23 8:00 AM, Porto Alegre, Weather by CustomWeather, © 2014

Note: Actual official high and low records may vary slightly from our data, if they occured in-between our weather recording intervals... More about our weather records

Advertising

Porto Alegre weather history for previous 24 hours

 ConditionsComfort  
Time TempWeatherWind HumidityBarometerVisibility
8:00 AM
Aug 23
61 °FSunny.7 mph94%29.95 "Hg10 mi
7:00 AM59 °FSunny.7 mph94%29.95 "Hg10 mi
6:00 AM59 °FSunny.6 mph94%29.92 "Hg10 mi
5:00 AM59 °FClear.2 mph94%29.92 "Hg10 mi
4:00 AM59 °FClear.2 mph94%29.92 "Hg10 mi
3:00 AM59 °FClear.3 mph94%29.92 "Hg10 mi
2:00 AM61 °FClear.3 mph94%29.95 "Hg10 mi
1:00 AM63 °FClear.5 mph88%29.95 "Hg10 mi
12:00 AM63 °FClear.3 mph83%29.95 "Hg10 mi
11:00 PM
Aug 22
63 °FClear.7 mph83%29.95 "Hg10 mi
10:00 PM64 °FClear.12 mph78%29.95 "Hg10 mi
9:00 PM68 °FClear.9 mph69%29.95 "Hg10 mi
8:00 PM70 °FClear.10 mph69%29.95 "Hg10 mi
7:00 PM72 °FClear.10 mph73%29.95 "Hg10 mi
6:00 PM75 °FClear.9 mph61%29.95 "Hg10 mi
5:00 PM81 °FSunny.8 mph58%29.92 "Hg10 mi
4:00 PM84 °FSunny.5 mph33%29.92 "Hg10 mi
3:00 PM84 °FSunny.5 mph35%29.92 "Hg10 mi
2:00 PM84 °FSunny.2 mph35%29.95 "Hg10 mi
1:00 PM81 °FSunny.2 mph42%29.98 "Hg10 mi
12:00 PM77 °FPassing clouds.6 mph51%30.01 "HgN/A
11:00 AM72 °FPassing clouds.3 mph61%30.04 "HgN/A
10:00 AM66 °FPassing clouds.5 mph78%30.04 "HgN/A
9:00 AM63 °FClear.2 mph77%30.04 "Hg5 mi
Weather by CustomWeather, © 2014

See weather overviewHow to use our weather pages